Probability
13 15 16 14 12 12 15 16 15 13 9 5 3 3 3 3 2 2 1 1 2 2 2 2 3 3 4 4 4 6 7 7 6 5 4 4 3 3 2 1 2 4 5
7 9 9 7 6 8 10 11 11 9 6 3 2 2 2 2 1 1 2 3 3 3 2 1 2 2 2 2 3 5 5 5 4 3 2 2 2 2 2 2 3 6 8
3 3 2 1 1 2 4 5 6 5 3 1 1 1 1 1 1 2 4 5 4 3 2 1 1 1 0 0 1 3 3 3 3 2 1 2 2 3 3 3 4 6 8
2 2 1 0 0 0 1 2 3 3 3 3 2 2 1 0 2 4 5 5 4 2 1 0 0 0 0 0 0 1 1 3 3 2 2 2 2 3 4 3 3 4 5
1 1 1 0 0 0 0 1 3 3 4 5 6 5 2 1 2 4 4 3 2 1 0 0 0 0 0 0 0 0 1 2 3 2 1 1 1 2 2 1 1 3 4
0 0 0 0 0 0 0 1 3 5 6 7 8 7 5 3 3 3 3 2 1 0 0 0 0 0 0 0 0 0 1 2 3 2 0 0 0 1 1 1 1 2 4
0 0 0 0 1 1 1 2 5 7 7 7 8 7 6 5 4 3 1 1 0 0 0 0 0 0 0 0 0 0 1 2 2 1 0 0 0 1 2 1 0 1 3
0 0 0 0 1 2 2 3 5 7 6 6 6 6 6 5 3 2 1 0 0 0 0 0 0 0 0 0 0 0 0 1 1 0 0 0 0 1 1 1 1 1 2
0 0 0 0 1 1 1 1 3 4 4 3 4 4 3 3 1 1 0 0 0 0 0 0 0 0 0 0 0 0 0 0 0 0 0 0 0 0 1 2 2 1 1
0 0 0 0 0 0 0 0 0 1 2 2 2 2 1 1 0 0 0 0 0 0 0 0 0 0 0 0 0 0 0 0 0 0 0 0 0 0 1 1 2 1 1
0 0 0 0 0 0 0 0 0 1 2 2 1 0 0 0 0 0 0 0 0 0 0 0 0 0 0 0 0 0 0 0 0 0 0 0 0 0 0 0 1 1 0
0 0 0 0 0 0 0 0 0 1 2 1 0 0 0 0 0 0 0 0 0 0 0 0 0 0 0 0 0 0 0 0 0 0 0 0 0 0 0 0 0 0 0
0 0 1 1 0 0 0 0 0 1 1 0 0 0 0 0 0 0 0 0 0 0 0 0 0 0 0 0 0 0 0 0 0 0 0 0 0 0 0 0 0 0 0
1 1 2 2 1 0 0 0 0 0 0 0 0 0 0 0 0 0 0 0 0 0 0 0 0 0 0 0 0 0 0 0 0 0 0 0 0 0 0 0 0 0 0
2 2 4 3 1 0 0 0 0 0 0 0 0 0 0 0 0 0 0 0 0 0 0 0 0 0 0 0 0 0 0 0 0 0 0 0 0 0 0 0 0 0 0
1 1 3 3 2 1 0 0 0 0 0 0 0 0 0 0 0 0 0 0 0 0 0 0 0 0 0 0 0 0 0 0 0 0 0 0 0 0 0 0 0 0 0
0 0 1 2 3 2 0 0 0 0 0 0 0 0 0 0 0 0 0 0 0 0 0 0 0 0 0 0 0 0 0 0 0 0 0 0 0 0 0 0 0 0 0
0 0 0 1 2 1 0 0 0 0 0 0 0 0 0 0 0 0 0 0 0 0 0 0 0 0 0 0 0 0 0 0 0 0 0 0 0 0 0 0 0 0 0
0 0 0 0 0 0 0 0 1 0 0 0 0 0 0 0 0 0 0 0 0 0 0 0 0 0 0 0 0 0 0 0 0 0 0 0 0 0 0 0 0 0 0
0 0 0 0 0 0 0 0 0 0 0 0 0 0 0 0 0 0 0 0 0 0 0 0 0 0 0 0 0 0 0 0 0 0 0 0 0 0 0 0 0 0 0
0 0 0 0 0 0 0 0 0 0 0 0 0 0 0 0 0 0 0 0 0 0 0 0 0 0 0 0 0 0 0 0 0 0 0 0 0 0 0 0 0 0 0
0 0 0 0 0 0 0 0 0 0 0 0 0 0 0 0 0 0 0 0 0 0 0 0 0 0 0 0 0 0 0 0 0 0 0 0 0 0 0 0 0 0 0
0 0 0 0 0 0 0 0 0 0 0 0 0 0 0 0 0 0 0 0 0 0 0 0 0 0 0 0 0 0 0 0 0 0 0 0 0 0 0 0 0 0 0
0 0 1 1 0 0 0 0 0 0 0 0 0 0 0 0 0 0 0 0 0 0 0 0 0 0 0 0 0 0 0 0 0 0 0 0 0 0 0 0 0 0 0
0 1 2 1 0 0 0 0 0 0 0 0 0 0 0 0 0 0 0 0 0 0 0 0 0 0 0 0 0 0 0 0 0 0 0 0 0 0 0 0 0 0 0
1 2 2 1 0 0 0 0 0 0 0 0 0 0 0 0 0 0 0 0 0 0 0 0 0 0 0 0 0 0 0 0 0 0 0 0 0 0 0 0 0 0 0
Wind_Speed
7 6 5 5 6 6 7 6 5 6 4 3 3 2 2 2 1 1 1 1 1 1 2 4 2 4 4 5 6 6 6 6 5 7 8 8 11 10 9 10 10 12 14
8 7 6 6 6 6 6 6 5 5 4 2 1 1 0 1 1 1 1 2 2 3 3 3 5 4 4 5 6 6 6 6 5 6 8 8 7 7 8 8 9 11 10
9 9 8 6 6 6 6 5 4 4 3 3 3 2 2 3 3 3 3 2 3 4 4 4 6 5 7 6 6 7 7 7 7 5 6 7 6 6 4 7 7 8 8
8 8 7 7 6 6 6 5 5 4 3 3 3 3 3 4 3 3 3 3 4 5 5 6 6 6 8 7 8 7 6 7 8 6 5 7 7 7 6 5 5 6 7
8 7 7 7 6 6 5 5 4 4 3 3 3 4 5 4 4 4 4 6 5 6 6 6 6 6 8 8 8 8 9 8 9 8 6 6 6 8 8 8 6 5 6
8 7 6 6 5 5 5 5 5 4 4 4 3 4 5 6 7 7 6 6 6 6 7 7 6 8 8 7 8 8 10 9 9 9 8 7 7 6 6 8 8 7 6
8 8 7 6 5 5 4 4 4 4 3 3 3 4 5 6 7 7 7 7 7 6 5 7 7 8 7 8 8 8 9 9 9 9 9 8 8 7 7 8 8 8 6
8 7 6 6 5 4 4 4 3 2 2 3 3 4 5 6 5 5 7 8 7 7 7 8 8 9 9 9 8 9 9 8 9 11 10 8 9 7 7 7 7 8 7
7 7 6 5 5 4 3 3 2 2 2 2 3 4 4 5 6 6 7 7 6 7 8 8 9 9 9 9 9 9 9 9 10 11 10 10 8 8 7 7 7 7 8
8 7 6 6 4 4 3 2 2 2 3 4 4 4 4 5 6 7 7 8 8 8 9 10 10 9 9 9 10 10 9 9 9 9 10 10 9 8 7 8 7 7 8
9 8 7 6 6 4 4 3 3 3 3 4 4 5 6 6 7 7 8 8 8 9 9 10 10 10 10 10 9 11 11 11 11 11 11 11 11 9 9 8 8 8 7
8 8 7 7 5 4 3 3 3 4 4 4 5 6 6 7 7 8 8 8 9 9 10 10 10 11 11 10 11 11 11 11 12 12 12 12 10 11 11 9 9 8 7
8 8 7 6 5 4 3 3 3 4 4 5 6 6 7 7 8 8 9 9 9 10 10 10 10 11 11 11 11 11 12 12 12 12 12 12 12 12 11 11 10 9 9
9 8 7 6 4 3 3 3 3 4 4 5 6 7 7 8 8 9 9 9 9 10 10 10 10 11 11 11 11 11 11 12 12 12 12 13 13 13 12 11 11 10 10
9 8 7 5 4 4 3 4 4 4 5 6 7 7 8 8 9 9 9 9 9 10 10 10 11 11 10 10 9 10 11 12 12 12 12 13 12 10 9 10 10 10 10
9 8 6 5 5 4 4 4 4 4 5 6 7 7 8 9 9 9 9 9 9 10 10 10 11 11 9 4 5 10 13 13 13 13 12 13 13 13 14 14 14 13 12
8 7 6 5 4 4 3 4 4 4 5 7 8 8 8 9 9 9 9 9 10 10 10 10 11 11 10 6 7 9 12 14 13 13 12 11 11 11 13 14 17 17 17
8 7 6 5 4 4 4 4 4 5 6 7 8 8 8 9 9 9 9 9 9 9 10 10 11 11 10 6 7 8 12 14 14 13 13 13 13 12 12 13 13 14 14
7 5 5 4 4 4 3 4 5 6 6 7 7 7 8 9 9 10 10 9 9 10 10 10 11 11 11 7 6 8 11 11 13 12 12 12 13 10 8 12 14 13 12
6 5 5 5 4 4 3 5 6 6 7 7 7 7 8 9 10 10 10 9 9 10 10 10 10 11 11 6 5 7 9 10 10 10 10 10 12 10 7 12 13 14 13
7 6 6 5 4 4 4 6 6 6 7 7 7 8 8 9 9 9 9 9 9 10 10 11 10 10 10 8 7 8 8 10 10 8 8 7 7 11 11 12 13 12 10
8 7 6 5 4 4 5 6 7 6 6 7 8 8 8 9 8 8 9 9 9 10 10 9 10 8 7 6 4 7 9 10 10 9 8 6 3 7 10 11 11 10 9
7 7 6 6 5 5 6 7 6 6 6 7 8 8 9 8 8 8 9 9 8 8 8 8 8 8 7 4 6 9 10 11 10 9 9 9 7 8 9 13 12 10 10
7 7 7 6 5 5 6 6 6 6 7 8 8 8 8 8 7 6 7 7 7 7 8 8 8 9 8 7 5 5 6 9 10 9 9 10 12 11 10 8 10 11 10
6 6 7 6 6 5 5 6 6 6 7 8 8 8 8 7 7 7 6 8 8 6 8 9 9 9 10 7 6 8 9 9 8 8 8 7 7 7 7 8 8 9 9
6 6 6 6 6 5 6 5 5 6 7 8 8 7 6 6 7 7 7 7 9 8 11 13 12 10 10 11 11 11 11 12 10 8 8 8 7 7 7 7 8 8 9
Wind_Direction
120 123 118 121 133 138 141 145 147 150 165 164 181 178 176 184 181 174 128 235 299 321 300 307 313 293 296 302 296 291 280 276 288 282 274 259 246 243 245 242 243 239 234
136 139 142 148 146 143 141 148 161 159 177 159 189 216 237 232 213 239 183 252 273 283 274 299 294 297 297 278 284 285 292 292 289 289 291 280 258 228 239 240 238 242 236
149 150 148 151 153 149 153 151 154 160 172 173 195 185 204 228 223 235 232 252 273 272 288 286 290 302 288 287 290 285 278 288 287 278 285 291 293 309 254 243 244 242 238
151 151 155 159 160 156 157 159 168 173 180 206 223 245 265 279 297 288 289 283 274 280 280 281 283 285 288 290 276 277 283 277 279 272 261 271 292 289 291 265 247 243 243
162 162 167 167 166 167 170 172 176 184 193 223 233 257 272 288 292 293 289 286 279 274 278 283 286 284 281 286 289 290 278 276 275 281 278 274 267 261 271 283 283 268 251
172 173 173 173 178 182 188 189 183 195 207 226 242 263 284 292 298 294 295 285 282 278 279 283 285 282 284 285 278 278 271 270 276 277 277 275 277 281 280 280 281 278 270
183 183 185 187 191 195 196 199 195 204 215 234 256 272 283 285 280 289 295 295 294 292 297 299 293 288 286 283 281 274 276 273 268 264 267 271 273 279 281 282 285 282 278
185 189 191 190 193 188 189 193 196 218 238 253 270 282 284 284 295 304 305 299 298 305 314 296 288 286 284 282 280 277 269 266 267 266 268 270 268 270 271 278 287 285 275
183 184 181 179 179 175 174 182 192 211 240 264 274 273 284 297 305 300 281 291 302 298 298 294 289 287 284 283 282 275 277 273 268 267 260 257 264 262 265 268 269 279 284
176 172 169 167 161 159 160 174 214 248 269 269 280 291 291 288 289 291 303 300 296 295 292 288 287 285 283 279 276 276 269 269 268 267 273 270 266 265 259 260 263 262 271
171 168 166 164 168 178 189 208 239 256 266 281 286 292 292 295 291 288 292 295 293 294 289 287 285 283 281 279 276 274 278 271 270 268 264 260 265 267 265 256 255 257 259
166 166 167 171 182 195 214 234 265 273 277 283 284 288 294 294 294 296 299 296 292 290 289 288 286 284 283 282 279 277 277 274 271 268 267 264 261 256 259 260 258 258 260
168 167 173 183 196 209 229 258 273 284 291 295 289 291 293 295 295 298 297 295 292 290 290 288 286 285 286 283 279 277 276 273 271 269 267 264 261 260 257 257 255 253 249
175 178 181 192 201 218 243 261 274 289 297 296 294 296 296 297 296 297 297 294 292 291 291 290 287 286 284 282 279 277 276 275 273 270 267 265 261 258 257 256 254 254 255
184 186 192 196 209 224 238 257 276 287 295 294 294 296 297 297 295 296 296 295 292 289 290 289 286 285 283 279 289 291 284 280 277 273 268 264 263 273 272 270 265 257 249
191 191 196 203 219 234 250 263 273 287 290 291 294 298 297 296 297 297 296 293 290 289 289 287 287 287 285 316 310 288 287 283 276 272 270 267 253 245 239 247 260 267 264
193 195 201 207 220 234 245 262 278 284 285 287 292 295 296 297 300 301 299 295 294 291 290 289 288 287 286 273 263 266 278 277 275 273 270 267 264 253 250 237 231 240 244
195 197 203 204 213 218 229 254 274 278 283 287 292 297 298 299 302 300 297 296 293 294 292 292 291 290 288 268 260 266 271 271 270 268 266 265 266 262 260 259 251 245 236
193 193 199 203 207 223 236 257 272 280 285 290 297 300 301 300 299 299 299 298 296 294 293 291 291 289 288 268 252 265 281 272 269 266 265 264 264 258 250 256 257 255 251
185 188 191 199 206 217 228 254 273 285 292 299 301 301 298 296 296 298 298 298 297 292 292 292 291 289 289 280 248 257 276 277 277 272 266 254 252 267 249 252 251 249 247
187 188 196 208 216 217 227 255 275 285 296 301 297 294 294 292 290 292 293 295 294 294 293 293 291 287 283 274 241 240 271 283 284 281 276 271 224 230 236 247 255 258 265
190 193 199 211 212 217 232 257 272 286 293 292 290 292 293 293 295 293 292 292 291 289 288 289 292 291 283 272 257 230 247 273 280 280 281 287 263 239 236 239 248 256 261
196 198 204 214 215 217 234 259 277 285 286 287 288 292 295 293 292 293 292 290 287 287 296 300 302 304 306 286 223 229 239 244 261 278 289 290 280 261 241 236 237 238 237
195 199 209 221 224 226 236 253 268 274 277 282 287 290 290 291 295 294 291 294 297 298 301 304 304 305 304 304 309 290 256 234 246 264 266 249 247 248 256 239 219 226 231
197 202 212 225 232 230 238 249 258 264 273 281 284 285 288 294 294 289 292 292 294 302 296 302 303 305 305 328 342 311 303 308 316 312 287 272 257 246 238 235 230 224 220
196 204 215 228 235 233 240 248 252 255 267 276 281 287 292 296 293 295 292 252 250 256 247 252 266 286 283 292 290 283 277 276 277 277 267 267 262 254 245 237 230 226 222